Flag for Brazil Weather past 2 weeks in São Paulo, São Paulo, Brazil

Now
70 °F

Haze.


Feels Like: 70 °F
Forecast: 64 / 85 °F
Wind: 5 mph from Northeast

Location: Sao Paulo Airport


UV Index: 5 (Moderate)

Visibility: 3 mi


Pressure: 30.12 "Hg

Humidity: 78%

Dew point: 63 °F

Location of São PauloLocation

Historic Weather in São Paulo

°F

São Paulo temperature yesterday

Maximum temperature yesterday: 84 °F (at 3:00 PM)
Minimum temperature yesterday: 64 °F (at 5:00 AM)
Average temperature yesterday: 72 °F

Past Weeks' High & Low Weather Summary

 TemperatureHumidityPressure
High86 °F (Apr 6, 2:00 PM)100% (Apr 12, 9:00 PM)30.27 "Hg (Apr 12, 9:00 PM)
Low32 °F (Apr 12, 9:00 PM)22% (Apr 7, 2:00 PM)29.92 "Hg (Apr 9, 3:00 PM)
Average71 °F72%30.09 "Hg
* Reported Apr 4 9:00 AM — Apr 19 9:00 AM, São Paulo, Weather by CustomWeather, © 2014

Note: Actual official high and low records may vary slightly from our data, if they occured in-between our weather recording intervals... More about our weather records

Advertising

Historic Weather Conditions — Data for Previous 24 hours

 ConditionsComfort  
Time TempWeatherWind HumidityBarometerVisibility
9:00 AM
Apr 19
70 °FHaze.5 mph78%30.12 "Hg3 mi
8:00 AM68 °FFog.6 mph83%30.12 "Hg3 mi
7:00 AM66 °FFog.2 mph83%30.09 "Hg2 mi
6:00 AM66 °FFog.2 mph88%30.07 "Hg3 mi
5:00 AM68 °FFog.3 mph83%30.04 "Hg3 mi
4:00 AM66 °FFog.No wind83%30.04 "Hg3 mi
3:00 AM66 °FFog.No wind88%30.04 "Hg3 mi
2:00 AM66 °FFog.No wind88%30.04 "Hg2 mi
1:00 AM68 °FFog.2 mph83%30.07 "Hg2 mi
12:00 AM70 °FFog.3 mph78%30.07 "Hg3 mi
11:00 PM
Apr 18
70 °FFog.3 mph83%30.07 "Hg3 mi
10:00 PM68 °FFog.2 mph83%30.09 "Hg3 mi
9:00 PM68 °FFog.5 mph83%30.07 "Hg3 mi
8:00 PM68 °FFog.7 mph88%30.04 "Hg3 mi
7:00 PM72 °FClear.7 mph78%30.04 "Hg4 mi
6:00 PM73 °FClear.9 mph74%30.01 "Hg10 mi
5:00 PM79 °FClear.6 mph61%30.01 "Hg10 mi
4:00 PM82 °FPassing clouds.10 mph37%29.98 "HgN/A
3:00 PM84 °FScattered clouds.10 mph35%29.98 "HgN/A
2:00 PM82 °FPassing clouds.7 mph40%29.98 "HgN/A
1:00 PM82 °FPassing clouds.8 mph40%30.01 "HgN/A
12:00 PM81 °FPassing clouds.3 mph48%30.04 "HgN/A
11:00 AM77 °FPassing clouds.7 mph61%30.07 "HgN/A
10:00 AM73 °FPassing clouds.6 mph65%30.07 "HgN/A
Weather by CustomWeather, © 2014

See weather overview